#timestamp,LO_Frequency,Hit,Temp,Hum 
1478804415.3,286046816.2,N,0.0,0.0
1478804435.1,286046817.2,N,0.0,0.0
1478804455.9,286046814.4,N,0.0,0.0
1478804475.7,286046816.5,N,0.0,0.0
1478804495.5,286046814.1,N,0.0,0.0
1478804515.4,286046814.6,N,0.0,0.0
1478804535.2,286046818.3,N,0.0,0.0
1478804555.0,286046816.3,N,0.0,0.0
1478804555.9,286046816.3,N,0.0,0.0
1478804575.8,286046817.2,N,0.0,0.0
1478804595.6,286046818.7,N,0.0,0.0
1478804615.5,286046816.7,N,0.0,0.0
1478804635.3,286046813.3,N,0.0,0.0
1478804655.1,286046818.8,N,0.0,0.0
1478804675.9,286046817.8,N,0.0,0.0
1478804695.7,286046820.1,N,0.0,0.0
1478804715.5,286046821.7,N,0.0,0.0
1478804735.4,286046817.2,N,0.0,0.0
1478804755.2,286046818.1,N,0.0,0.0
1478804775.0,286046816.8,N,0.0,0.0
1478804775.9,286046816.8,N,0.0,0.0
1478804795.8,286046815.3,N,0.0,0.0
1478804815.6,286046816.3,N,0.0,0.0
1478804835.5,286046812.8,N,0.0,0.0
1478804855.3,286046814.5,N,0.0,0.0
1478804875.1,286046816.7,N,0.0,0.0
1478804895.9,286046815.8,N,0.0,0.0
1478804915.7,286046814.6,N,0.0,0.0
1478804935.5,286046812.8,N,0.0,0.0
1478804955.4,286046816.8,N,0.0,0.0
1478804975.2,286046816.0,N,0.0,0.0
1478804995.1,286046816.0,N,0.0,0.0
1478804996.0,286046816.0,N,0.0,0.0
1478805015.8,286046817.0,N,0.0,0.0
1478805035.6,286046820.4,N,0.0,0.0
1478805055.5,286046817.6,N,0.0,0.0
1478805075.3,286046821.9,N,0.0,0.0
1478805095.1,286046820.1,N,0.0,0.0
1478805115.9,286046820.4,N,0.0,0.0
1478805135.7,286046819.7,N,0.0,0.0
1478805155.5,286046819.9,N,0.0,0.0
1478805175.4,286046818.5,N,0.0,0.0
1478805195.2,286046817.3,N,0.0,0.0
1478805215.1,286046817.0,N,0.0,0.0
1478805216.0,286046817.0,N,0.0,0.0
1478805235.8,286046816.1,N,0.0,0.0
1478805255.6,286046814.4,N,0.0,0.0
1478805275.5,286046818.2,N,0.0,0.0
1478805295.3,286046818.2,N,0.0,0.0
1478805315.1,286046815.8,N,0.0,0.0
1478805335.9,286046820.0,N,0.0,0.0
1478805355.7,286046818.0,N,0.0,0.0
1478805375.6,286046818.6,N,0.0,0.0
1478805395.4,286046820.1,N,0.0,0.0
1478805415.2,286046817.4,N,0.0,0.0
1478805435.1,286046820.1,N,0.0,0.0
1478805436.0,286046820.1,N,0.0,0.0
1478805455.8,286046817.6,N,0.0,0.0
1478805475.6,286046819.3,N,0.0,0.0
1478805495.5,286046822.0,N,0.0,0.0
1478805515.3,286046821.7,N,0.0,0.0
1478805535.2,286046820.4,N,0.0,0.0
1478805555.9,286046818.2,N,0.0,0.0
1478805575.7,286046817.1,N,0.0,0.0
1478805595.6,286046820.1,N,0.0,0.0
1478805615.4,286046817.7,N,0.0,0.0
1478805635.2,286046817.5,N,0.0,0.0
1478805655.1,286046818.8,N,0.0,0.0
1478805656.0,286046818.8,N,0.0,0.0
1478805675.8,286046814.1,N,0.0,0.0
1478805695.7,286046818.0,N,0.0,0.0
1478805715.5,286046818.8,N,0.0,0.0
1478805735.3,286046815.7,N,0.0,0.0
1478805755.2,286046820.2,N,0.0,0.0
1478805775.9,286046819.5,N,0.0,0.0
1478805795.7,286046818.5,N,0.0,0.0
1478805815.6,286046819.5,N,0.0,0.0
1478805835.4,286046821.2,N,0.0,0.0
1478805855.2,286046820.6,N,0.0,0.0
1478805875.1,286046817.5,N,0.0,0.0
1478805876.0,286046817.5,N,0.0,0.0
1478805895.8,286046826.7,N,0.0,0.0
1478805915.7,286046820.5,N,0.0,0.0
1478805935.5,286046821.5,N,0.0,0.0
1478805955.3,286046822.8,N,0.0,0.0
1478805975.2,286046819.7,N,0.0,0.0
1478805995.9,286046820.8,N,0.0,0.0
1478806015.7,286046823.1,N,0.0,0.0
1478806035.6,286046817.3,N,0.0,0.0
1478806055.4,286046819.9,N,0.0,0.0
1478806075.2,286046819.3,N,0.0,0.0
1478806095.1,286046820.4,N,0.0,0.0
1478806096.0,286046820.4,N,0.0,0.0
1478806115.8,286046817.3,N,0.0,0.0
1478806135.7,286046817.7,N,0.0,0.0
1478806155.5,286046822.0,N,0.0,0.0
1478806175.3,286046819.8,N,0.0,0.0
1478806195.2,286046823.1,N,0.0,0.0
1478806215.0,286046822.3,N,0.0,0.0
1478806215.9,286046822.3,N,0.0,0.0
1478806235.8,286046823.3,N,0.0,0.0
1478806255.6,286046821.9,N,0.0,0.0
1478806275.4,286046821.6,N,0.0,0.0
1478806295.3,286046823.1,N,0.0,0.0
1478806315.1,286046819.3,N,0.0,0.0
1478806335.8,286046818.4,N,0.0,0.0
1478806355.7,286046817.9,N,0.0,0.0
1478806375.5,286046821.9,N,0.0,0.0
1478806395.4,286046820.2,N,0.0,0.0
1478806415.2,286046819.3,N,0.0,0.0
1478806435.0,286046820.3,N,0.0,0.0
1478806435.9,286046820.3,N,0.0,0.0
1478806455.8,286046819.8,N,0.0,0.0
1478806475.6,286046817.7,N,0.0,0.0
1478806495.4,286046819.4,N,0.0,0.0
1478806515.3,286046819.6,N,0.0,0.0
1478806535.1,286046819.7,N,0.0,0.0
1478806555.9,286046819.7,N,0.0,0.0
1478806575.7,286046819.2,N,0.0,0.0
1478806595.5,286046822.0,N,0.0,0.0
1478806615.4,286046821.6,N,0.0,0.0
1478806635.2,286046821.2,N,0.0,0.0
1478806655.0,286046821.8,N,0.0,0.0
1478806655.9,286046821.8,N,0.0,0.0
1478806675.8,286046819.7,N,0.0,0.0
1478806695.6,286046820.1,N,0.0,0.0
1478806715.5,286046817.7,N,0.0,0.0
1478806735.3,286046817.9,N,0.0,0.0
1478806755.1,286046818.6,N,0.0,0.0
1478806775.9,286046815.8,N,0.0,0.0
1478806795.7,286046818.4,N,0.0,0.0
1478806815.5,286046818.5,N,0.0,0.0
1478806835.4,286046818.8,N,0.0,0.0
1478806855.2,286046818.7,N,0.0,0.0
1478806875.0,286046815.7,N,0.0,0.0
1478806876.0,286046815.7,N,0.0,0.0
1478806895.8,286046814.4,N,0.0,0.0
1478806915.6,286046816.9,N,0.0,0.0
1478806935.5,286046817.0,N,0.0,0.0
1478806955.3,286046817.0,N,0.0,0.0
1478806975.1,286046817.1,N,0.0,0.0
1478806995.9,286046815.3,N,0.0,0.0
1478807015.7,286046815.4,N,0.0,0.0
1478807035.5,286046815.0,N,0.0,0.0
1478807055.4,286046815.1,N,0.0,0.0
1478807075.2,286046814.5,N,0.0,0.0
1478807095.1,286046815.2,N,0.0,0.0
1478807096.0,286046815.2,N,0.0,0.0
1478807115.8,286046815.2,N,0.0,0.0
1478807135.6,286046812.9,N,0.0,0.0
1478807155.5,286046813.1,N,0.0,0.0
1478807175.3,286046815.0,N,0.0,0.0
1478807195.1,286046811.0,N,0.0,0.0
1478807215.9,286046813.4,N,0.0,0.0
1478807235.7,286046814.0,N,0.0,0.0
1478807255.6,286046815.3,N,0.0,0.0
1478807275.4,286046812.7,N,0.0,0.0
1478807295.2,286046809.6,N,0.0,0.0
1478807315.1,286046810.0,N,0.0,0.0
1478807316.0,286046810.0,N,0.0,0.0
1478807335.8,286046809.5,N,0.0,0.0
1478807355.6,286046812.3,N,0.0,0.0
1478807375.5,286046813.9,N,0.0,0.0
1478807395.3,286046809.5,N,0.0,0.0
1478807415.2,286046810.9,N,0.0,0.0
1478807435.9,286046812.0,N,0.0,0.0
1478807455.7,286046812.4,N,0.0,0.0
1478807475.6,286046810.0,N,0.0,0.0
1478807495.4,286046811.9,N,0.0,0.0
1478807515.2,286046812.1,N,0.0,0.0
1478807535.1,286046811.5,N,0.0,0.0
1478807536.0,286046811.5,N,0.0,0.0
1478807555.8,286046813.6,N,0.0,0.0
1478807575.7,286046811.6,N,0.0,0.0
1478807595.5,286046813.7,N,0.0,0.0
1478807615.3,286046812.8,N,0.0,0.0
1478807635.2,286046813.2,N,0.0,0.0
1478807655.9,286046809.3,N,0.0,0.0
1478807675.7,286046813.8,N,0.0,0.0
1478807695.6,286046811.2,N,0.0,0.0
1478807715.4,286046811.3,N,0.0,0.0
1478807735.3,286046810.6,N,0.0,0.0
1478807755.1,286046812.4,N,0.0,0.0
1478807756.0,286046812.4,N,0.0,0.0
1478807775.8,286046812.4,N,0.0,0.0
1478807795.7,286046811.8,N,0.0,0.0
1478807815.5,286046811.5,N,0.0,0.0
1478807835.3,286046809.9,N,0.0,0.0
1478807855.2,286046808.5,N,0.0,0.0
1478807875.0,286046811.6,N,0.0,0.0
1478807875.9,286046811.6,N,0.0,0.0
1478807895.8,286046809.4,N,0.0,0.0
1478807915.6,286046811.7,N,0.0,0.0
1478807935.4,286046810.2,N,0.0,0.0
1478807955.3,286046813.9,N,0.0,0.0
1478807975.1,286046815.7,N,0.0,0.0
1478807995.8,286046811.3,N,0.0,0.0
